Showing default

HYDRA-3, 69022

Orbit data source: Space-Track

HYDRA-3, 69022 is a payload satellite owned by AISTech (ES) in SSO that was launched on Sun, 03 May 2026 UTC via an FALCON 9 launch vehicle from the Air Force Western Test Range (AFWTR). Payload-class satellites include a variety of spacecraft equipped with specific instruments for various scientific and technological missions. These include communications satellites like Starlink; space stations such as the ISS; scientific satellites like the Hubble; Earth observation satellites from companies like Planet Labs, Umbra, and HawkEye 360; GPS; miniature CubeSats for education and research; and military/defense satellites.

Loading next visibility...
Identifier
69022, 2026-100AU
Orbit
SSO
Country
Flag of ESES / SPN
Related business
Manufacturer
Endurosat
Mission
Operational Commercial Imaging
Bus & Motor
CUBESAT 6U, Unknown motor
Mass
10 kg wet, 10 kg dry
Launch date (UTC)
2026-05-03 (3 months ago)
Launch vehicle
FALCON 9
Launch site
Air Force Western Test Range (AFWTR)
Object type
Payload
Rocket body
Debris
Shape & HBR
Box + 2 Pan, 14.5 m
Radar Cross Section
0.124 m², Medium (>0.1 m² and < 1m²)

Expand to show TLE details & history
Last TLE update: 13 hours ago

TLE from 13 hours ago
0 HYDRA-3
1 69022U 26100AU  26202.14069007  .00002048  00000-0  97606-4 0  9993
2 69022  97.3986  99.2697 0003412 215.7863 144.3144 15.20226738 11961
Epoch: 2026-07-21T03:22Z
TLE epoch observation values (Epoch: 2026-07-21T03:22:35.622Z)
Latitude
-0°
Longitude
109.70662°
Altitude
510.155 km
Speed
7.608 km/s
True Right ascension
06h 37m 04s
True Declination
0° 00' 00"
Sunlit
Object was in daylight at epoch
Visualization orbit readout
Latitude
Unknown
Longitude
Unknown
Altitude
Unknown
Speed
Unknown
Apparent Right ascension
Unknown
Apparent Declination
Unknown
Sunlit
N/A
Visualization observer readout
Local Sidereal Time
05:16:42
Azimuth
Unknown
Elevation
Unknown
Doppler factor
Unknown
Orbital elements
Apogee altitude
504.469 km
Perigee altitude
499.774 km
Semi-major axis
6,880.258 km
Eccentricity
0.00034
Inclination
97.3986°
RAAN
99.2697°
Arg. of periapsis
215.7863°
True anomaly
144.3372°
Mean anomaly
144.3144°
Eccentric anomaly
144.3258°
Mean motion
3.80309 °/min
Orbital period
94.66 mins
BSTAR
0.000097606
Loading maneuver chart data...
Computing Atmospheric mass density...
Loading historical data...
Loading historical data...
Loading historical data...
Loading historical data...
Loading historical data...
Loading historical data...
Loading historical data...

Documentation

Showing up to 5 results
|